Location: B?jaj?g
(11.7167°N, 92.6667°E)
Time: 13:36:29
(UTC+00:00)

Cosmos 1536 - Pass Details

Date: 18 September 2020
Orbit: 541 x 558 km, 82.5° (Epoch: 26 October)

Event Time Altitude Azimuth Distance (km) Brightness Sun altitude
Rises 23:08:11 0° 347° (NNW) 2,730 6.3 -8.3°
Reaches altitude 10° 23:10:24 10° 342° (NNW) 1,835 5.3 -7.7°
Maximum altitude 23:14:18 49° 267° (W) 723 3.0 -6.8°
Drops below altitude 10° 23:18:11 10° 192° (SSW) 1,828 5.3 -5.8°
Sets 23:20:24 0° 186° (S) 2,719 6.3 -5.3°
